Year,Month,Day,Hour,Minute,Value (Times are PST for temperature in C)
2012,06,04,00,00,7.80
2012,06,04,00,01,7.80
2012,06,04,00,02,7.70
2012,06,04,00,03,7.70
2012,06,04,00,04,7.70
2012,06,04,00,05,7.70
2012,06,04,00,06,7.70
2012,06,04,00,07,7.70
2012,06,04,00,08,7.70
2012,06,04,00,09,7.70
2012,06,04,00,10,7.70
2012,06,04,00,11,7.70
2012,06,04,00,12,7.60
2012,06,04,00,13,7.60
2012,06,04,00,14,7.60
2012,06,04,00,15,7.60
2012,06,04,00,16,7.60
2012,06,04,00,17,7.60
2012,06,04,00,18,7.60
2012,06,04,00,19,7.50
2012,06,04,00,20,7.50
2012,06,04,00,21,7.50
2012,06,04,00,22,7.50
2012,06,04,00,23,7.50
2012,06,04,00,24,7.50
2012,06,04,00,25,7.50
2012,06,04,00,26,7.50
2012,06,04,00,27,7.40
2012,06,04,00,28,7.40
2012,06,04,00,29,7.40
2012,06,04,00,30,7.40
2012,06,04,00,31,7.40
2012,06,04,00,32,7.40
2012,06,04,00,33,7.30
2012,06,04,00,34,7.30
2012,06,04,00,35,7.30
2012,06,04,00,36,7.30
2012,06,04,00,37,7.30
2012,06,04,00,38,7.30
2012,06,04,00,39,7.30
2012,06,04,00,40,7.30
2012,06,04,00,41,7.30
2012,06,04,00,42,7.20
2012,06,04,00,43,7.20
2012,06,04,00,44,7.20
2012,06,04,00,45,7.20
2012,06,04,00,46,7.20
2012,06,04,00,47,7.20
2012,06,04,00,48,7.20
2012,06,04,00,49,7.20
2012,06,04,00,50,7.20
2012,06,04,00,51,7.20
2012,06,04,00,52,7.20
2012,06,04,00,53,7.20
2012,06,04,00,54,7.20
2012,06,04,00,55,7.20
2012,06,04,00,56,7.20
2012,06,04,00,57,7.20
2012,06,04,00,58,7.20
2012,06,04,00,59,7.20
2012,06,04,01,00,7.10
2012,06,04,01,01,7.10
2012,06,04,01,02,7.10
2012,06,04,01,03,7.10
2012,06,04,01,04,7.10
2012,06,04,01,05,7.10
2012,06,04,01,06,7.10
2012,06,04,01,07,7.10
2012,06,04,01,08,7.10
2012,06,04,01,09,7.10
2012,06,04,01,10,7.10
2012,06,04,01,11,7.10
2012,06,04,01,12,7.00
2012,06,04,01,13,7.00
2012,06,04,01,14,7.00
2012,06,04,01,15,7.00
2012,06,04,01,16,7.00
2012,06,04,01,17,7.00
2012,06,04,01,18,7.00
2012,06,04,01,19,7.00
2012,06,04,01,20,6.90
2012,06,04,01,21,6.90
2012,06,04,01,22,6.90
2012,06,04,01,23,6.90
2012,06,04,01,24,6.90
2012,06,04,01,25,6.90
2012,06,04,01,26,6.90
2012,06,04,01,27,6.90
2012,06,04,01,28,6.90
2012,06,04,01,29,6.90
2012,06,04,01,30,6.90
2012,06,04,01,31,6.90
2012,06,04,01,32,6.90
2012,06,04,01,33,6.90
2012,06,04,01,34,6.90
2012,06,04,01,35,6.90
2012,06,04,01,36,6.90
2012,06,04,01,37,6.90
2012,06,04,01,38,6.90
2012,06,04,01,39,6.80
2012,06,04,01,40,6.80
2012,06,04,01,41,6.80
2012,06,04,01,42,6.80
2012,06,04,01,43,6.80
2012,06,04,01,44,6.80
2012,06,04,01,49,6.80
2012,06,04,01,50,6.80
2012,06,04,01,51,6.80
2012,06,04,01,52,6.80
2012,06,04,01,53,6.80
2012,06,04,01,54,6.80
2012,06,04,01,55,6.80
2012,06,04,01,56,6.80
2012,06,04,01,57,6.80
2012,06,04,01,58,6.80
2012,06,04,01,59,6.80
2012,06,04,02,00,6.80
2012,06,04,02,01,6.80
2012,06,04,02,02,6.80
2012,06,04,02,03,6.80
2012,06,04,02,04,6.80
2012,06,04,02,05,6.80
2012,06,04,02,06,6.80
2012,06,04,02,07,6.80
2012,06,04,02,08,6.80
2012,06,04,02,09,6.80
2012,06,04,02,10,6.70
2012,06,04,02,11,6.70
2012,06,04,02,12,6.70
2012,06,04,02,13,6.70
2012,06,04,02,14,6.70
2012,06,04,02,15,6.70
2012,06,04,02,16,6.70
2012,06,04,02,17,6.70
2012,06,04,02,18,6.70
2012,06,04,02,19,6.70
2012,06,04,02,20,6.70
2012,06,04,02,21,6.70
2012,06,04,02,22,6.70
2012,06,04,02,23,6.70
2012,06,04,02,24,6.70
2012,06,04,02,25,6.70
2012,06,04,02,26,6.70
2012,06,04,02,27,6.70
2012,06,04,02,28,6.70
2012,06,04,02,29,6.70
2012,06,04,02,30,6.70
2012,06,04,02,31,6.70
2012,06,04,02,32,6.70
2012,06,04,02,33,6.70
2012,06,04,02,34,6.70
2012,06,04,02,35,6.70
2012,06,04,02,36,6.60
2012,06,04,02,37,6.60
2012,06,04,02,38,6.60
2012,06,04,02,39,6.60
2012,06,04,02,40,6.60
2012,06,04,02,41,6.60
2012,06,04,02,42,6.60
2012,06,04,02,43,6.60
2012,06,04,02,44,6.60
2012,06,04,02,45,6.60
2012,06,04,02,46,6.60
2012,06,04,02,47,6.60
2012,06,04,02,48,6.60
2012,06,04,02,49,6.60
2012,06,04,02,50,6.60
2012,06,04,02,51,6.60
2012,06,04,02,52,6.50
2012,06,04,02,53,6.50
2012,06,04,02,54,6.50
2012,06,04,02,55,6.50
2012,06,04,02,56,6.50
2012,06,04,02,57,6.50
2012,06,04,02,58,6.50
2012,06,04,02,59,6.50
2012,06,04,03,00,6.50
2012,06,04,03,01,6.50
2012,06,04,03,02,6.50
2012,06,04,03,03,6.40
2012,06,04,03,04,6.50
2012,06,04,03,05,6.50
2012,06,04,03,06,6.50
2012,06,04,03,07,6.50
2012,06,04,03,08,6.50
2012,06,04,03,09,6.40
2012,06,04,03,10,6.40
2012,06,04,03,11,6.40
2012,06,04,03,12,6.40
2012,06,04,03,13,6.40
2012,06,04,03,14,6.40
2012,06,04,03,15,6.40
2012,06,04,03,16,6.40
2012,06,04,03,17,6.40
2012,06,04,03,18,6.40
2012,06,04,03,19,6.40
2012,06,04,03,20,6.40
2012,06,04,03,21,6.40
2012,06,04,03,22,6.40
2012,06,04,03,23,6.40
2012,06,04,03,24,6.40
2012,06,04,03,25,6.40
2012,06,04,03,26,6.40
2012,06,04,03,27,6.40
2012,06,04,03,28,6.40
2012,06,04,03,29,6.40
2012,06,04,03,30,6.40
2012,06,04,03,31,6.40
2012,06,04,03,32,6.40
2012,06,04,03,33,6.40
2012,06,04,03,34,6.40
2012,06,04,03,35,6.40
2012,06,04,03,36,6.40
2012,06,04,03,37,6.40
2012,06,04,03,38,6.40
2012,06,04,03,39,6.40
2012,06,04,03,40,6.40
2012,06,04,03,41,6.40
2012,06,04,03,42,6.40
2012,06,04,03,43,6.40
2012,06,04,03,44,6.40
2012,06,04,03,45,6.40
2012,06,04,03,46,6.40
2012,06,04,03,47,6.40
2012,06,04,03,48,6.40
2012,06,04,03,49,6.40
2012,06,04,03,50,6.40
2012,06,04,03,51,6.40
2012,06,04,03,52,6.40
2012,06,04,03,53,6.40
2012,06,04,03,54,6.40
2012,06,04,03,55,6.40
2012,06,04,03,56,6.40
2012,06,04,03,57,6.40
2012,06,04,03,58,6.40
2012,06,04,03,59,6.50
2012,06,04,04,00,6.50
2012,06,04,04,01,6.50
2012,06,04,04,02,6.50
2012,06,04,04,03,6.50
2012,06,04,04,04,6.50
2012,06,04,04,05,6.60
2012,06,04,04,06,6.60
2012,06,04,04,07,6.60
2012,06,04,04,08,6.60
2012,06,04,04,09,6.60
2012,06,04,04,10,6.60
2012,06,04,04,11,6.60
2012,06,04,04,12,6.60
2012,06,04,04,13,6.60
2012,06,04,04,14,6.70
2012,06,04,04,15,6.70
2012,06,04,04,16,6.70
2012,06,04,04,17,6.70
2012,06,04,04,18,6.70
2012,06,04,04,19,6.70
2012,06,04,04,20,6.70
2012,06,04,04,21,6.70
2012,06,04,04,22,6.70
2012,06,04,04,23,6.70
2012,06,04,04,24,6.70
2012,06,04,04,25,6.70
2012,06,04,04,26,6.70
2012,06,04,04,27,6.70
2012,06,04,04,28,6.70
2012,06,04,04,29,6.70
2012,06,04,04,30,6.70
2012,06,04,04,31,6.70
2012,06,04,04,32,6.80
2012,06,04,04,33,6.80
2012,06,04,04,34,6.80
2012,06,04,04,35,6.80
2012,06,04,04,36,6.80
2012,06,04,04,37,6.80
2012,06,04,04,38,6.80
2012,06,04,04,39,6.80
2012,06,04,04,40,6.80
2012,06,04,04,41,6.90
2012,06,04,04,42,6.90
2012,06,04,04,43,6.90
2012,06,04,04,44,6.90
2012,06,04,04,45,6.90
2012,06,04,04,46,6.90
2012,06,04,04,47,6.90
2012,06,04,04,48,6.90
2012,06,04,04,49,7.00
2012,06,04,04,50,7.00
2012,06,04,04,51,7.00
2012,06,04,04,52,7.00
2012,06,04,04,53,7.10
2012,06,04,04,54,7.10
2012,06,04,04,55,7.10
2012,06,04,04,56,7.10
2012,06,04,04,57,7.10
2012,06,04,04,58,7.20
2012,06,04,04,59,7.20
2012,06,04,05,00,7.20
2012,06,04,05,01,7.20
2012,06,04,05,02,7.20
2012,06,04,05,03,7.20
2012,06,04,05,04,7.20
2012,06,04,05,05,7.30
2012,06,04,05,06,7.30
2012,06,04,05,07,7.30
2012,06,04,05,08,7.30
2012,06,04,05,09,7.30
2012,06,04,05,10,7.30
2012,06,04,05,11,7.30
2012,06,04,05,12,7.30
2012,06,04,05,13,7.40
2012,06,04,05,14,7.40
2012,06,04,05,15,7.40
2012,06,04,05,16,7.40
2012,06,04,05,17,7.40
2012,06,04,05,18,7.40
2012,06,04,05,19,7.40
2012,06,04,05,20,7.40
2012,06,04,05,21,7.40
2012,06,04,05,22,7.40
2012,06,04,05,23,7.40
2012,06,04,05,24,7.40
2012,06,04,05,25,7.40
2012,06,04,05,26,7.40
2012,06,04,05,27,7.50
2012,06,04,05,28,7.50
2012,06,04,05,29,7.50
2012,06,04,05,30,7.50
2012,06,04,05,31,7.50
2012,06,04,05,32,7.50
2012,06,04,05,33,7.60
2012,06,04,05,34,7.60
2012,06,04,05,35,7.60
2012,06,04,05,36,7.60
2012,06,04,05,37,7.60
2012,06,04,05,38,7.60
2012,06,04,05,39,7.70
2012,06,04,05,40,7.70
2012,06,04,05,41,7.70
2012,06,04,05,42,7.70
2012,06,04,05,43,7.70
2012,06,04,05,44,7.70
2012,06,04,05,45,7.80
2012,06,04,05,46,7.80
2012,06,04,05,47,7.80
2012,06,04,05,48,7.80
2012,06,04,05,49,7.80
2012,06,04,05,50,7.80
2012,06,04,05,51,7.80
2012,06,04,05,52,7.90
2012,06,04,05,53,7.90
2012,06,04,05,54,7.90
2012,06,04,05,55,7.90
2012,06,04,05,56,7.90
2012,06,04,05,57,8.00
2012,06,04,05,58,8.00
2012,06,04,05,59,8.10
2012,06,04,06,00,8.10
2012,06,04,06,01,8.10
2012,06,04,06,02,8.20
2012,06,04,06,03,8.20
2012,06,04,06,04,8.20
2012,06,04,06,05,8.20
2012,06,04,06,06,8.20
2012,06,04,06,07,8.20
2012,06,04,06,08,8.20
2012,06,04,06,09,8.30
2012,06,04,06,10,8.30
2012,06,04,06,11,8.30
2012,06,04,06,12,8.30
2012,06,04,06,13,8.30
2012,06,04,06,14,8.30
2012,06,04,06,15,8.30
2012,06,04,06,16,8.30
2012,06,04,06,17,8.30
2012,06,04,06,18,8.30
2012,06,04,06,19,8.40
2012,06,04,06,20,8.40
2012,06,04,06,21,8.40
2012,06,04,06,22,8.50
2012,06,04,06,23,8.60
2012,06,04,06,24,8.60
2012,06,04,06,25,8.60
2012,06,04,06,26,8.60
2012,06,04,06,27,8.70
2012,06,04,06,28,8.70
2012,06,04,06,29,8.70
2012,06,04,06,30,8.70
2012,06,04,06,31,8.70
2012,06,04,06,32,8.70
2012,06,04,06,33,8.80
2012,06,04,06,34,8.80
2012,06,04,06,35,8.80
2012,06,04,06,36,8.80
2012,06,04,06,37,8.80
2012,06,04,06,38,8.80
2012,06,04,06,39,8.80
2012,06,04,06,40,8.80
2012,06,04,06,41,8.90
2012,06,04,06,42,8.90
2012,06,04,06,43,8.90
2012,06,04,06,44,8.90
2012,06,04,06,45,8.90
2012,06,04,06,46,8.90
2012,06,04,06,47,9.00
2012,06,04,06,48,9.00
2012,06,04,06,49,9.00
2012,06,04,06,50,9.10
2012,06,04,06,51,9.10
2012,06,04,06,52,9.10
2012,06,04,06,53,9.20
2012,06,04,06,54,9.20
2012,06,04,06,55,9.20
2012,06,04,06,56,9.20
2012,06,04,06,57,9.30
2012,06,04,06,58,9.30
2012,06,04,06,59,9.30
2012,06,04,07,00,9.30
2012,06,04,07,01,9.30
2012,06,04,07,02,9.30
2012,06,04,07,03,9.30
2012,06,04,07,04,9.30
2012,06,04,07,05,9.30
2012,06,04,07,06,9.30
2012,06,04,07,07,9.30
2012,06,04,07,08,9.30
2012,06,04,07,09,9.30
2012,06,04,07,10,9.30
2012,06,04,07,11,9.30
2012,06,04,07,12,9.30
2012,06,04,07,13,9.30
2012,06,04,07,14,9.30
2012,06,04,07,15,9.30
2012,06,04,07,16,9.30
2012,06,04,07,17,9.40
2012,06,04,07,18,9.40
2012,06,04,07,19,9.40
2012,06,04,07,20,9.40
2012,06,04,07,21,9.40
2012,06,04,07,22,9.40
2012,06,04,07,23,9.40
2012,06,04,07,24,9.40
2012,06,04,07,25,9.40
2012,06,04,07,26,9.40
2012,06,04,07,27,9.40
2012,06,04,07,28,9.40
2012,06,04,07,29,9.40
2012,06,04,07,30,9.40
2012,06,04,07,31,9.50
2012,06,04,07,32,9.50
2012,06,04,07,33,9.50
2012,06,04,07,34,9.60
2012,06,04,07,35,9.60
2012,06,04,07,36,9.60
2012,06,04,07,37,9.60
2012,06,04,07,38,9.60
2012,06,04,07,39,9.60
2012,06,04,07,40,9.60
2012,06,04,07,41,9.60
2012,06,04,07,42,9.60
2012,06,04,07,43,9.60
2012,06,04,07,44,9.60
2012,06,04,07,45,9.60
2012,06,04,07,46,9.60
2012,06,04,07,47,9.60
2012,06,04,07,48,9.60
2012,06,04,07,49,9.60
2012,06,04,07,50,9.70
2012,06,04,07,51,9.70
2012,06,04,07,52,9.70
2012,06,04,07,53,9.70
2012,06,04,07,54,9.80
2012,06,04,07,55,9.80
2012,06,04,07,56,9.80
2012,06,04,07,57,9.80
2012,06,04,07,58,9.80
2012,06,04,07,59,9.80
2012,06,04,08,00,9.80
2012,06,04,08,01,9.80
2012,06,04,08,02,9.80
2012,06,04,08,03,9.80
2012,06,04,08,04,9.90
2012,06,04,08,05,9.90
2012,06,04,08,06,9.90
2012,06,04,08,07,9.90
2012,06,04,08,08,9.90
2012,06,04,08,09,9.90
2012,06,04,08,10,9.90
2012,06,04,08,11,9.90
2012,06,04,08,12,10.00
2012,06,04,08,13,10.00
2012,06,04,08,14,10.00
2012,06,04,08,15,10.10
2012,06,04,08,16,10.10
2012,06,04,08,17,10.10
2012,06,04,08,18,10.10
2012,06,04,08,19,10.10
2012,06,04,08,20,10.20
2012,06,04,08,21,10.20
2012,06,04,08,22,10.20
2012,06,04,08,23,10.30
2012,06,04,08,24,10.30
2012,06,04,08,25,10.30
2012,06,04,08,26,10.30
2012,06,04,08,27,10.30
2012,06,04,08,28,10.30
2012,06,04,08,29,10.30
2012,06,04,08,30,10.30
2012,06,04,08,31,10.40
2012,06,04,08,32,10.40
2012,06,04,08,33,10.40
2012,06,04,08,34,10.40
2012,06,04,08,35,10.50
2012,06,04,08,36,10.50
2012,06,04,08,37,10.60
2012,06,04,08,38,10.60
2012,06,04,08,39,10.60
2012,06,04,08,40,10.60
2012,06,04,08,41,10.70
2012,06,04,08,42,10.70
2012,06,04,08,43,10.70
2012,06,04,08,44,10.70
2012,06,04,08,45,10.70
2012,06,04,08,46,10.70
2012,06,04,08,47,10.70
2012,06,04,08,48,10.70
2012,06,04,08,49,10.70
2012,06,04,08,50,10.70
2012,06,04,08,51,10.70
2012,06,04,08,52,10.80
2012,06,04,08,53,10.80
2012,06,04,08,54,10.80
2012,06,04,08,55,10.80
2012,06,04,08,56,10.80
2012,06,04,08,57,10.80
2012,06,04,08,58,10.80
2012,06,04,08,59,10.80
2012,06,04,09,00,10.80
2012,06,04,09,01,10.80
2012,06,04,09,02,10.80
2012,06,04,09,03,10.80
2012,06,04,09,04,10.80
2012,06,04,09,05,10.90
2012,06,04,09,06,10.90
2012,06,04,09,07,10.90
2012,06,04,09,08,10.90
2012,06,04,09,09,10.90
2012,06,04,09,10,11.00
2012,06,04,09,11,11.00
2012,06,04,09,12,11.00
2012,06,04,09,13,11.10
2012,06,04,09,14,11.10
2012,06,04,09,15,11.20
2012,06,04,09,16,11.20
2012,06,04,09,17,11.20
2012,06,04,09,18,11.10
2012,06,04,09,19,11.10
2012,06,04,09,20,11.10
2012,06,04,09,21,11.10
2012,06,04,09,22,11.10
2012,06,04,09,23,11.20
2012,06,04,09,24,11.20
2012,06,04,09,25,11.20
2012,06,04,09,26,11.20
2012,06,04,09,27,11.20
2012,06,04,09,28,11.20
2012,06,04,09,29,11.20
2012,06,04,09,30,11.20
2012,06,04,09,31,11.10
2012,06,04,09,32,11.10
2012,06,04,09,33,11.10
2012,06,04,09,34,11.20
2012,06,04,09,35,11.20
2012,06,04,09,36,11.20
2012,06,04,09,37,11.20
2012,06,04,09,38,11.20
2012,06,04,09,39,11.20
2012,06,04,09,40,11.20
2012,06,04,09,41,11.20
2012,06,04,09,42,11.20
2012,06,04,09,43,11.30
2012,06,04,09,44,11.30
2012,06,04,09,45,11.30
2012,06,04,09,46,11.30
2012,06,04,09,47,11.30
2012,06,04,09,48,11.30
2012,06,04,09,49,11.30
2012,06,04,09,50,11.30
2012,06,04,09,51,11.30
2012,06,04,09,52,11.30
2012,06,04,09,53,11.30
2012,06,04,09,54,11.30
2012,06,04,09,55,11.30
2012,06,04,09,56,11.30
2012,06,04,09,57,11.30
2012,06,04,09,58,11.40
2012,06,04,09,59,11.40
2012,06,04,10,00,11.40
2012,06,04,10,01,11.40
2012,06,04,10,02,11.40
2012,06,04,10,03,11.40
2012,06,04,10,04,11.40
2012,06,04,10,05,11.50
2012,06,04,10,06,11.50
2012,06,04,10,07,11.50
2012,06,04,10,08,11.50
2012,06,04,10,09,11.60
2012,06,04,10,10,11.60
2012,06,04,10,11,11.60
2012,06,04,10,12,11.60
2012,06,04,10,13,11.60
2012,06,04,10,14,11.60
2012,06,04,10,15,11.60
2012,06,04,10,16,11.60
2012,06,04,10,17,11.60
2012,06,04,10,18,11.70
2012,06,04,10,19,11.70
2012,06,04,10,20,11.70
2012,06,04,10,21,11.70
2012,06,04,10,22,11.70
2012,06,04,10,23,11.70
2012,06,04,10,24,11.70
2012,06,04,10,25,11.70
2012,06,04,10,26,11.60
2012,06,04,10,27,11.60
2012,06,04,10,28,11.60
2012,06,04,10,29,11.70
2012,06,04,10,30,11.70
2012,06,04,10,31,11.70
2012,06,04,10,32,11.70
2012,06,04,10,33,11.70
2012,06,04,10,34,11.70
2012,06,04,10,35,11.80
2012,06,04,10,36,11.80
2012,06,04,10,37,11.80
2012,06,04,10,38,11.80
2012,06,04,10,39,11.90
2012,06,04,10,40,11.90
2012,06,04,10,41,11.90
2012,06,04,10,42,11.90
2012,06,04,10,43,11.90
2012,06,04,10,44,11.90
2012,06,04,10,45,11.90
2012,06,04,10,46,11.90
2012,06,04,10,47,11.90
2012,06,04,10,48,11.90
2012,06,04,10,49,11.90
2012,06,04,10,50,11.90
2012,06,04,10,51,12.00
2012,06,04,10,52,12.00
2012,06,04,10,53,12.00
2012,06,04,10,54,12.00
2012,06,04,10,55,12.00
2012,06,04,10,56,12.10
2012,06,04,10,57,12.10
2012,06,04,10,58,12.10
2012,06,04,10,59,12.10
2012,06,04,11,00,12.10
2012,06,04,11,01,12.10
2012,06,04,11,02,12.10
2012,06,04,11,03,12.10
2012,06,04,11,04,12.10
2012,06,04,11,05,12.10
2012,06,04,11,06,12.00
2012,06,04,11,07,12.00
2012,06,04,11,08,11.90
2012,06,04,11,09,11.90
2012,06,04,11,10,11.90
2012,06,04,11,11,11.90
2012,06,04,11,12,11.90
2012,06,04,11,13,11.90
2012,06,04,11,14,11.90
2012,06,04,11,15,11.90
2012,06,04,11,16,11.90
2012,06,04,11,17,11.90
2012,06,04,11,18,11.90
2012,06,04,11,19,11.90
2012,06,04,11,20,11.90
2012,06,04,11,21,11.90
2012,06,04,11,22,11.90
2012,06,04,11,23,11.80
2012,06,04,11,24,11.80
2012,06,04,11,25,11.80
2012,06,04,11,26,11.80
2012,06,04,11,27,11.80
2012,06,04,11,28,11.80
2012,06,04,11,29,11.80
2012,06,04,11,30,11.80
2012,06,04,11,31,11.80
2012,06,04,11,32,11.80
2012,06,04,11,33,11.80
2012,06,04,11,34,11.80
2012,06,04,11,35,11.80
2012,06,04,11,36,11.80
2012,06,04,11,37,11.80
2012,06,04,11,38,11.80
2012,06,04,11,39,11.80
2012,06,04,11,40,11.80
2012,06,04,11,41,11.90
2012,06,04,11,42,11.90
2012,06,04,11,43,11.90
2012,06,04,11,44,11.90
2012,06,04,11,45,11.90
2012,06,04,11,46,11.90
2012,06,04,11,47,11.90
2012,06,04,11,48,11.90
2012,06,04,11,49,11.90
2012,06,04,11,50,12.00
2012,06,04,11,51,12.00
2012,06,04,11,52,12.00
2012,06,04,11,53,12.00
2012,06,04,11,54,12.00
2012,06,04,11,55,12.00
2012,06,04,11,56,12.00
2012,06,04,11,57,12.00
2012,06,04,11,58,12.00
2012,06,04,11,59,12.00
2012,06,04,12,00,12.10
2012,06,04,12,01,12.10
2012,06,04,12,02,12.10
2012,06,04,12,03,12.10
2012,06,04,12,04,12.10
2012,06,04,12,05,12.10
2012,06,04,12,06,12.10
2012,06,04,12,07,12.00
2012,06,04,12,08,12.00
2012,06,04,12,09,12.00
2012,06,04,12,10,12.00
2012,06,04,12,11,12.00
2012,06,04,12,12,12.10
2012,06,04,12,13,12.10
2012,06,04,12,14,12.10
2012,06,04,12,15,12.10
2012,06,04,12,16,12.20
2012,06,04,12,17,12.20
2012,06,04,12,18,12.20
2012,06,04,12,19,12.30
2012,06,04,12,20,12.30
2012,06,04,12,21,12.30
2012,06,04,12,22,12.40
2012,06,04,12,23,12.40
2012,06,04,12,24,12.40
2012,06,04,12,25,12.40
2012,06,04,12,26,12.40
2012,06,04,12,27,12.30
2012,06,04,12,28,12.30
2012,06,04,12,29,12.30
2012,06,04,12,30,12.30
2012,06,04,12,31,12.30
2012,06,04,12,32,12.30
2012,06,04,12,33,12.20
2012,06,04,12,34,12.20
2012,06,04,12,35,12.20
2012,06,04,12,36,12.10
2012,06,04,12,37,12.10
2012,06,04,12,38,12.10
2012,06,04,12,39,12.10
2012,06,04,12,40,12.10
2012,06,04,12,41,12.10
2012,06,04,12,42,12.10
2012,06,04,12,43,12.10
2012,06,04,12,44,12.10
2012,06,04,12,45,12.10
2012,06,04,12,46,12.10
2012,06,04,12,47,12.20
2012,06,04,12,48,12.20
2012,06,04,12,49,12.20
2012,06,04,12,50,12.20
2012,06,04,12,51,12.20
2012,06,04,12,52,12.20
2012,06,04,12,53,12.20
2012,06,04,12,54,12.20
2012,06,04,12,55,12.20
2012,06,04,12,56,12.20
2012,06,04,12,57,12.20
2012,06,04,12,58,12.20
2012,06,04,12,59,12.20
2012,06,04,13,00,12.20
2012,06,04,13,01,12.20
2012,06,04,13,02,12.20
2012,06,04,13,03,12.20
2012,06,04,13,04,12.30
2012,06,04,13,05,12.30
2012,06,04,13,06,12.30
2012,06,04,13,07,12.30
2012,06,04,13,08,12.30
2012,06,04,13,09,12.30
2012,06,04,13,10,12.30
2012,06,04,13,11,12.40
2012,06,04,13,12,12.40
2012,06,04,13,13,12.40
2012,06,04,13,14,12.40
2012,06,04,13,15,12.50
2012,06,04,13,16,12.50
2012,06,04,13,17,12.60
2012,06,04,13,18,12.60
2012,06,04,13,19,12.60
2012,06,04,13,20,12.60
2012,06,04,13,21,12.60
2012,06,04,13,22,12.60
2012,06,04,13,23,12.60
2012,06,04,13,24,12.60
2012,06,04,13,25,12.60
2012,06,04,13,26,12.60
2012,06,04,13,27,12.60
2012,06,04,13,28,12.60
2012,06,04,13,29,12.60
2012,06,04,13,30,12.60
2012,06,04,13,31,12.60
2012,06,04,13,32,12.60
2012,06,04,13,33,12.60
2012,06,04,13,34,12.60
2012,06,04,13,35,12.60
2012,06,04,13,36,12.60
2012,06,04,13,37,12.60
2012,06,04,13,38,12.50
2012,06,04,13,39,12.50
2012,06,04,13,40,12.40
2012,06,04,13,41,12.40
2012,06,04,13,42,12.30
2012,06,04,13,43,12.40
2012,06,04,13,44,12.40
2012,06,04,13,45,12.40
2012,06,04,13,46,12.40
2012,06,04,13,47,12.40
2012,06,04,13,48,12.40
2012,06,04,13,49,12.50
2012,06,04,13,50,12.50
2012,06,04,13,51,12.50
2012,06,04,13,52,12.50
2012,06,04,13,53,12.50
2012,06,04,13,54,12.50
2012,06,04,13,55,12.50
2012,06,04,13,56,12.50
2012,06,04,13,57,12.50
2012,06,04,13,58,12.60
2012,06,04,13,59,12.60
2012,06,04,14,00,12.60
2012,06,04,14,01,12.60
2012,06,04,14,02,12.60
2012,06,04,14,03,12.60
2012,06,04,14,04,12.60
2012,06,04,14,05,12.60
2012,06,04,14,06,12.60
2012,06,04,14,07,12.60
2012,06,04,14,08,12.60
2012,06,04,14,09,12.60
2012,06,04,14,10,12.60
2012,06,04,14,11,12.60
2012,06,04,14,12,12.60
2012,06,04,14,13,12.60
2012,06,04,14,14,12.60
2012,06,04,14,15,12.70
2012,06,04,14,16,12.70
2012,06,04,14,17,12.70
2012,06,04,14,18,12.70
2012,06,04,14,19,12.70
2012,06,04,14,20,12.70
2012,06,04,14,21,12.60
2012,06,04,14,22,12.70
2012,06,04,14,23,12.70
2012,06,04,14,24,12.70
2012,06,04,14,25,12.70
2012,06,04,14,26,12.70
2012,06,04,14,27,12.70
2012,06,04,14,28,12.70
2012,06,04,14,29,12.70
2012,06,04,14,30,12.60
2012,06,04,14,31,12.60
2012,06,04,14,32,12.70
2012,06,04,14,33,12.70
2012,06,04,14,34,12.70
2012,06,04,14,35,12.70
2012,06,04,14,36,12.70
2012,06,04,14,37,12.70
2012,06,04,14,38,12.70
2012,06,04,14,39,12.70
2012,06,04,14,40,12.70
2012,06,04,14,41,12.70
2012,06,04,14,42,12.70
2012,06,04,14,43,12.80
2012,06,04,14,44,12.80
2012,06,04,14,45,12.90
2012,06,04,14,46,12.90
2012,06,04,14,47,12.90
2012,06,04,14,48,13.00
2012,06,04,14,49,13.00
2012,06,04,14,50,13.10
2012,06,04,14,51,13.10
2012,06,04,14,52,13.10
2012,06,04,14,53,13.10
2012,06,04,14,54,13.20
2012,06,04,14,55,13.20
2012,06,04,14,56,13.20
2012,06,04,14,57,13.30
2012,06,04,14,58,13.30
2012,06,04,14,59,13.30
2012,06,04,15,00,13.30
2012,06,04,15,01,13.30
2012,06,04,15,02,13.30
2012,06,04,15,03,13.30
2012,06,04,15,04,13.40
2012,06,04,15,05,13.40
2012,06,04,15,06,13.50
2012,06,04,15,07,13.60
2012,06,04,15,08,13.60
2012,06,04,15,09,13.60
2012,06,04,15,10,13.60
2012,06,04,15,11,13.60
2012,06,04,15,12,13.60
2012,06,04,15,13,13.50
2012,06,04,15,14,13.50
2012,06,04,15,15,13.40
2012,06,04,15,16,13.40
2012,06,04,15,17,13.40
2012,06,04,15,18,13.40
2012,06,04,15,19,13.40
2012,06,04,15,20,13.40
2012,06,04,15,21,13.50
2012,06,04,15,22,13.50
2012,06,04,15,23,13.50
2012,06,04,15,24,13.50
2012,06,04,15,25,13.50
2012,06,04,15,26,13.50
2012,06,04,15,27,13.50
2012,06,04,15,28,13.50
2012,06,04,15,29,13.50
2012,06,04,15,30,13.50
2012,06,04,15,31,13.50
2012,06,04,15,32,13.50
2012,06,04,15,33,13.50
2012,06,04,15,34,13.50
2012,06,04,15,35,13.50
2012,06,04,15,36,13.50
2012,06,04,15,37,13.40
2012,06,04,15,38,13.40
2012,06,04,15,39,13.40
2012,06,04,15,40,13.40
2012,06,04,15,41,13.40
2012,06,04,15,42,13.40
2012,06,04,15,43,13.40
2012,06,04,15,44,13.40
2012,06,04,15,45,13.40
2012,06,04,15,46,13.30
2012,06,04,15,47,13.30
2012,06,04,15,48,13.30
2012,06,04,15,49,13.40
2012,06,04,15,50,13.40
2012,06,04,15,51,13.30
2012,06,04,15,52,13.30
2012,06,04,15,53,13.30
2012,06,04,15,54,13.30
2012,06,04,15,55,13.30
2012,06,04,15,56,13.30
2012,06,04,15,57,13.30
2012,06,04,15,58,13.30
2012,06,04,15,59,13.30
2012,06,04,16,00,13.30
2012,06,04,16,01,13.30
2012,06,04,16,02,13.30
2012,06,04,16,03,13.20
2012,06,04,16,04,13.20
2012,06,04,16,05,13.20
2012,06,04,16,06,13.20
2012,06,04,16,07,13.20
2012,06,04,16,08,13.10
2012,06,04,16,09,13.10
2012,06,04,16,10,13.10
2012,06,04,16,11,13.10
2012,06,04,16,12,13.10
2012,06,04,16,13,13.10
2012,06,04,16,14,13.10
2012,06,04,16,15,13.10
2012,06,04,16,16,13.10
2012,06,04,16,17,13.10
2012,06,04,16,18,13.10
2012,06,04,16,19,13.10
2012,06,04,16,20,13.10
2012,06,04,16,21,13.10
2012,06,04,16,22,13.10
2012,06,04,16,23,13.20
2012,06,04,16,24,13.20
2012,06,04,16,25,13.20
2012,06,04,16,26,13.20
2012,06,04,16,27,13.20
2012,06,04,16,28,13.30
2012,06,04,16,29,13.30
2012,06,04,16,30,13.30
2012,06,04,16,31,13.30
2012,06,04,16,32,13.30
2012,06,04,16,33,13.40
2012,06,04,16,34,13.40
2012,06,04,16,35,13.40
2012,06,04,16,36,13.40
2012,06,04,16,37,13.40
2012,06,04,16,38,13.40
2012,06,04,16,39,13.40
2012,06,04,16,40,13.50
2012,06,04,16,41,13.50
2012,06,04,16,42,13.60
2012,06,04,16,43,13.60
2012,06,04,16,44,13.60
2012,06,04,16,45,13.60
2012,06,04,16,46,13.70
2012,06,04,16,47,13.70
2012,06,04,16,48,13.70
2012,06,04,16,49,13.70
2012,06,04,16,50,13.70
2012,06,04,16,51,13.70
2012,06,04,16,52,13.70
2012,06,04,16,53,13.70
2012,06,04,16,54,13.80
2012,06,04,16,55,13.80
2012,06,04,16,56,13.80
2012,06,04,16,57,13.80
2012,06,04,16,58,13.80
2012,06,04,16,59,13.80
2012,06,04,17,00,13.80
2012,06,04,17,01,13.80
2012,06,04,17,02,13.80
2012,06,04,17,03,13.80
2012,06,04,17,04,13.80
2012,06,04,17,05,13.80
2012,06,04,17,06,13.80
2012,06,04,17,07,13.80
2012,06,04,17,08,13.80
2012,06,04,17,09,13.80
2012,06,04,17,10,13.80
2012,06,04,17,11,13.80
2012,06,04,17,12,13.80
2012,06,04,17,13,13.80
2012,06,04,17,14,13.80
2012,06,04,17,15,13.70
2012,06,04,17,16,13.70
2012,06,04,17,17,13.70
2012,06,04,17,18,13.70
2012,06,04,17,19,13.70
2012,06,04,17,20,13.70
2012,06,04,17,21,13.70
2012,06,04,17,22,13.70
2012,06,04,17,23,13.60
2012,06,04,17,24,13.60
2012,06,04,17,25,13.60
2012,06,04,17,26,13.70
2012,06,04,17,27,13.60
2012,06,04,17,28,13.60
2012,06,04,17,29,13.60
2012,06,04,17,30,13.60
2012,06,04,17,31,13.60
2012,06,04,17,32,13.60
2012,06,04,17,33,13.60
2012,06,04,17,34,13.60
2012,06,04,17,35,13.60
2012,06,04,17,36,13.50
2012,06,04,17,37,13.50
2012,06,04,17,38,13.50
2012,06,04,17,39,13.40
2012,06,04,17,40,13.40
2012,06,04,17,41,13.40
2012,06,04,17,42,13.40
2012,06,04,17,43,13.40
2012,06,04,17,44,13.40